[[{"header":{"parameterUnit":"m.s-1","parameterCategory":1,"la1":30.2991,"la2":30.254,"lo1":-89.0895,"lo2":-89.0444,"dx":0.0017,"dy":0.0017,"nx":28,"ny":28,"refTime":"2022-12-29T15:00:00:Z","depth":0,"parameterNumber":2,"parameterNumberName":"U-component_of_WINDS"},"data":[0,0,0,0,0,0,0,0,0,0,0,0,0,0,0,0,0,0,0,0,0,0,0,0,0,0,0,0,0,0,0,0,0,0,0,0,0,0,0,0,0,0,0,0,0,0,0,0,0,0,0,0,0,0,0,0,0,0,-4.252,-4.2521,0,-4.2583,-4.2583,-4.2584,-4.2548,-4.2546,-4.2544,-4.2542,-4.2605,-4.2608,-4.2611,0,0,0,0,0,0,0,0,0,0,0,0,0,-4.2369,-4.2372,-4.252,-4.2521,-4.2522,-4.2583,-4.2583,-4.2584,-4.2548,-4.2546,-4.2544,-4.2542,-4.2603,-4.2607,-4.2611,0,0,0,0,0,0,0,0,0,0,0,0,0,-4.2433,-4.2373,-4.252,-4.2511,-4.2511,-4.2582,-4.2583,-4.2584,-4.2548,-4.2546,-4.2543,-4.2541,-4.2602,-4.2607,-4.2612,-4.2695,0,0,-4.2627,-4.2629,0,0,0,0,0,0,0,0,-4.2429,-4.2439,-4.2511,-4.2512,-4.2512,-4.2555,-4.2553,-4.2622,-4.2549,-4.2534,-4.2542,-4.2539,-4.259,-4.2596,-4.2613,-4.2698,-4.2701,-4.2627,-4.263,-4.2633,-4.2634,0,0,0,0,0,0,0,-4.2425,-4.2436,-4.2545,-4.2513,-4.2513,-4.2504,-4.251,-4.2566,-4.2576,-4.2535,-4.2533,-4.2541,-4.2589,-4.2609,-4.2614,-4.2702,-4.2627,-4.2632,-4.2635,-4.2637,-4.2859,-4.2862,0,0,0,0,0,0,-4.2421,-4.2432,-4.2543,-4.2547,-4.2463,-4.2508,-4.2515,-4.2543,-4.2575,-4.2578,-4.2543,-4.2539,-4.2601,-4.2609,-4.2616,-4.2716,-4.2633,-4.2637,-4.264,-4.2856,-4.286,-4.2863,0,0,0,0,0,0,-4.2418,-4.2432,-4.254,-4.2489,-4.2502,-4.2514,-4.2546,-4.2546,-4.2565,-4.2581,-4.2583,-4.256,-4.26,-4.2609,-4.2676,-4.2717,-4.2639,-4.2644,-4.2853,-4.2857,-4.2861,-4.2915,0,0,0,0,0,0,-4.2414,-4.2431,-4.2462,-4.249,-4.2505,-4.2599,-4.2548,-4.2549,-4.2574,-4.2569,-4.2598,-4.26,-4.2598,-4.2669,-4.2681,-4.2723,-4.2648,-4.2849,-4.2855,-4.286,-4.291,-4.2921,-4.293,0,0,0,0,0,-4.2409,-4.2475,-4.2464,-4.2478,-4.2545,-4.2602,-4.261,-4.2607,-4.2577,-4.2609,-4.262,-4.2599,-4.2712,-4.2676,-4.2689,-4.2733,-4.2846,-4.2853,-4.2859,-4.2905,-4.2919,-4.293,0,0,0,0,0,0,-4.245,-4.2478,-4.2467,-4.2544,-4.2571,-4.2595,-4.2635,-4.2622,-4.2657,-4.2651,-4.2645,-4.2652,-4.2721,-4.2734,-4.2694,-4.2816,-4.2774,-4.2784,-4.2804,-4.2817,-4.2828,-4.2822,-4.2652,0,0,0,0,0,-4.2469,-4.2513,-4.2535,-4.26,-4.2615,-4.2623,-4.2648,-4.2643,-4.2671,-4.2682,-4.2697,-4.2724,-4.2766,-4.2793,-4.2832,-4.2913,-4.2918,-4.2949,-4.296,-4.2968,-4.2976,-4.3019,-4.3033,-4.2884,-4.2884,-4.2884,0,0,-4.2507,-4.2527,-4.2555,-4.2609,-4.263,-4.2675,-4.2633,-4.2682,-4.2716,-4.2689,-4.2752,-4.2765,-4.2795,-4.287,-4.2903,-4.2882,-4.3019,-4.2977,-4.2983,-4.2986,-4.3027,-4.3041,-4.3054,-4.2889,-4.2888,-4.2887,0,0,-4.2598,-4.2619,-4.2676,-4.2698,-4.273,-4.2735,-4.2749,-4.2777,-4.2784,-4.2849,-4.283,-4.287,-4.2941,-4.2963,-4.2984,-4.3087,-4.3069,-4.31,-4.3153,-4.3195,-4.3207,-4.3217,-4.3252,-4.3265,-4.3108,-4.3108,-4.3108,0,-4.2641,-4.2709,-4.2707,-4.2758,-4.2782,-4.2762,-4.2819,-4.2841,-4.2884,-4.2901,-4.2878,-4.2968,-4.2987,-4.3065,-4.3091,-4.3109,-4.3124,-4.3095,-4.3206,-4.3216,-4.3225,-4.3259,-4.3273,-4.3112,-4.3111,-4.3111,-4.311,0,-4.2759,-4.2807,-4.2849,-4.2892,-4.2921,-4.2975,-4.2981,-4.3011,-4.3006,-4.3013,-4.3079,-4.3102,-4.3145,-4.3164,-4.3158,-4.3243,-4.3229,-4.3206,-4.3163,-4.3243,-4.3274,-4.3287,-4.3116,-4.3115,-4.3114,-4.3113,0,0,-4.2875,-4.2918,-4.2933,-4.2953,-4.2988,-4.3025,-4.3079,-4.3122,-4.3147,-4.3179,-4.3223,-4.3285,-4.3265,-4.3288,-4.3285,-4.3323,-4.3402,-4.3296,-4.3296,-4.3313,-4.3495,-4.351,-4.3525,-4.3392,-4.3394,-4.3396,-4.3492,0,-4.2967,-4.3061,-4.3062,-4.3149,-4.3192,-4.3175,-4.3222,-4.3249,-4.3259,-4.3297,-4.3308,-4.3351,-4.3322,-4.3336,-4.3373,-4.3384,-4.3438,-4.3378,-4.3431,-4.3433,-4.3421,-4.3541,-4.3557,-4.3646,-4.3504,-4.3506,-4.3508,0,-4.3087,-4.3123,-4.3214,-4.3244,-4.3262,-4.3304,-4.3344,-4.3382,-4.3412,-4.3416,-4.3444,-4.3436,-4.349,-4.3449,-4.3524,-4.3483,-4.3506,-4.3515,-4.3518,-4.3521,-4.3473,-4.3545,-4.3674,-4.3687,-4.3527,-4.3526,-4.3524,0,-4.316,-4.3232,-4.3295,-4.3313,-4.335,-4.338,-4.3396,-4.3424,-4.345,-4.3486,-4.3503,-4.3544,-4.3566,-4.3598,-4.3601,-4.3571,-4.3677,-4.3635,-4.3681,-4.368,-4.3701,-4.3699,-4.3833,-4.372,-4.372,-4.372,-4.3719,0,-4.3261,-4.3317,-4.3329,-4.3368,-4.343,-4.3431,-4.3493,-4.3507,-4.3533,-4.3573,-4.3562,-4.3601,-4.3604,-4.3644,-4.3647,-4.3708,-4.3719,-4.3723,-4.3723,-4.3723,-4.3722,-4.3735,-4.3728,-4.3723,-4.3722,-4.3722,-4.3721,0,-4.3352,-4.3362,-4.343,-4.3461,-4.347,-4.3514,-4.354,-4.3577,-4.3587,-4.3639,-4.3651,-4.3666,-4.3713,-4.3721,-4.3775,-4.3777,-4.385,-4.3844,-4.3839,-4.3838,-4.3882,-4.3877,-4.4027,-4.4046,-4.3923,-4.3924,-4.3925,0,-4.3414,-4.3457,-4.3493,-4.352,-4.3538,-4.3582,-4.361,-4.3614,-4.3642,-4.3681,-4.3713,-4.3759,-4.3796,-4.3871,-4.3886,-4.3928,-4.3922,-4.3972,-4.3928,-4.3927,-4.3921,-4.3917,-4.3921,-4.398,-4.3981,-4.3982,-4.3983,0,-4.3524,-4.3527,-4.3567,-4.361,-4.3643,-4.3676,-4.3708,-4.3731,-4.3739,-4.3772,-4.382,-4.3848,-4.3905,-4.395,-4.3992,-4.4009,-4.3997,-4.3998,-4.401,-4.4008,-4.4003,-4.4004,-4.386,-4.3993,-4.3992,-4.3991,-4.3991,-4.399,-4.3601,-4.3638,-4.3669,-4.3714,-4.3739,-4.3769,-4.3805,-4.3821,-4.3861,-4.3908,-4.3908,-4.3961,-4.3991,-4.4046,-4.4066,-4.4107,-4.4091,-4.4109,-4.4113,-4.4117,-4.412,-4.3999,-4.4115,-4.4115,-4.4115,-4.4115,-4.4114,0,-4.3707,-4.3727,-4.3769,-4.3814,-4.385,-4.3838,-4.3873,-4.3903,-4.395,-4.398,-4.4017,-4.4072,-4.4117,-4.4137,-4.4181,-4.4209,-4.4205,-4.422,-4.4217,-4.4221,-4.4133,-4.4117,-4.4223,-4.4223,-4.4223,-4.4223,-4.4223,-4.4223,-4.3767,-4.3829,-4.3837,-4.3911,-4.3931,-4.3982,-4.4003,-4.4031,-4.4055,-4.4118,-4.4155,-4.4168,-4.4195,-4.424,-4.4281,-4.4286,-4.4301,-4.4319,-4.4321,-4.4238,-4.4227,-4.4216,-4.4201,-4.4323,-4.4323,-4.4404,-4.4405,-4.4405]},{"header":{"parameterUnit":"m.s-1","parameterCategory":1,"la1":30.2991,"la2":30.254,"lo1":-89.0895,"lo2":-89.0444,"dx":0.0017,"dy":0.0017,"nx":28,"ny":28,"refTime":"2022-12-29T15:00:00:Z","depth":0,"parameterNumber":3,"parameterNumberName":"V-component_of_WINDS"},"data":[0,0,0,0,0,0,0,0,0,0,0,0,0,0,0,0,0,0,0,0,0,0,0,0,0,0,0,0,0,0,0,0,0,0,0,0,0,0,0,0,0,0,0,0,0,0,0,0,0,0,0,0,0,0,0,0,0,0,2.5774,2.5774,0,2.5746,2.5745,2.5745,2.5706,2.5705,2.5705,2.5704,2.5673,2.5673,2.5673,0,0,0,0,0,0,0,0,0,0,0,0,0,2.5794,2.5794,2.5774,2.5774,2.5773,2.5746,2.5745,2.5745,2.5706,2.5705,2.5705,2.5704,2.5673,2.5673,2.5672,0,0,0,0,0,0,0,0,0,0,0,0,0,2.5778,2.5794,2.5774,2.5751,2.5748,2.5746,2.5745,2.5745,2.5706,2.5705,2.5704,2.5704,2.5673,2.5673,2.5672,2.569,0,0,2.5671,2.5671,0,0,0,0,0,0,0,0,2.5779,2.5777,2.5754,2.5752,2.575,2.5728,2.5741,2.5726,2.5707,2.5722,2.5704,2.5703,2.5692,2.569,2.5687,2.5688,2.5687,2.5671,2.5671,2.5671,2.5671,0,0,0,0,0,0,0,2.578,2.5778,2.5763,2.5754,2.5751,2.5742,2.5738,2.5738,2.5713,2.5721,2.5718,2.5715,2.5691,2.5687,2.5686,2.5686,2.5671,2.5671,2.5671,2.5671,2.5704,2.5705,0,0,0,0,0,0,2.5785,2.5779,2.5763,2.5762,2.5762,2.5742,2.5738,2.5736,2.5713,2.5708,2.5716,2.5714,2.5688,2.5686,2.5685,2.5706,2.5671,2.5671,2.567,2.5703,2.5704,2.5705,0,0,0,0,0,0,2.5785,2.5784,2.5765,2.577,2.5767,2.5743,2.5741,2.5736,2.5733,2.5709,2.5704,2.5717,2.5687,2.5685,2.569,2.5704,2.5671,2.567,2.5702,2.5703,2.5705,2.5747,0,0,0,0,0,0,2.5786,2.5784,2.579,2.577,2.5766,2.577,2.5742,2.5736,2.5733,2.5729,2.5709,2.5705,2.5687,2.569,2.5689,2.5703,2.567,2.57,2.5702,2.5704,2.5745,2.575,2.5755,0,0,0,0,0,2.5787,2.5802,2.5791,2.5789,2.5774,2.5771,2.5769,2.5748,2.5734,2.574,2.5726,2.5706,2.5702,2.5691,2.569,2.5704,2.5699,2.5702,2.5704,2.5742,2.5749,2.5755,0,0,0,0,0,0,2.5823,2.5799,2.5786,2.5795,2.5786,2.5765,2.5772,2.5756,2.5749,2.5746,2.572,2.5716,2.5724,2.5714,2.5702,2.5721,2.5698,2.57,2.5728,2.5734,2.5739,2.5742,2.567,0,0,0,0,0,2.5832,2.5833,2.5811,2.5821,2.5818,2.5796,2.5794,2.5779,2.5768,2.5763,2.5748,2.5738,2.5735,2.5733,2.5729,2.5742,2.5739,2.5751,2.5757,2.5761,2.5764,2.5774,2.578,2.5714,2.5713,2.5713,0,0,2.5851,2.5838,2.5839,2.5828,2.5819,2.5821,2.5793,2.5794,2.5796,2.5763,2.5768,2.5757,2.5743,2.5754,2.5757,2.5745,2.5782,2.5764,2.5768,2.5769,2.5777,2.5783,2.5789,2.5715,2.5715,2.5715,0,0,2.5886,2.5875,2.5885,2.5877,2.5864,2.585,2.5852,2.5834,2.5827,2.5831,2.5808,2.5808,2.5802,2.5795,2.5791,2.5827,2.5809,2.5826,2.5854,2.5864,2.5869,2.5874,2.5889,2.5895,2.5828,2.5828,2.5828,0,2.5911,2.5913,2.5891,2.5896,2.5893,2.5865,2.5875,2.5868,2.5854,2.5853,2.5839,2.5834,2.5823,2.5833,2.5842,2.5838,2.5841,2.5829,2.587,2.5874,2.5878,2.5893,2.5899,2.583,2.583,2.583,2.583,0,2.5945,2.5947,2.5956,2.5946,2.5944,2.595,2.593,2.5931,2.5916,2.5904,2.591,2.5896,2.589,2.589,2.5875,2.5899,2.5893,2.5875,2.5852,2.5888,2.5901,2.5906,2.5834,2.5833,2.5832,2.5832,0,0,2.6002,2.5982,2.5986,2.5983,2.5968,2.5969,2.5975,2.5971,2.5973,2.5964,2.5971,2.5968,2.5953,2.5948,2.5932,2.594,2.5974,2.5922,2.5921,2.5935,2.6002,2.6018,2.6025,2.5961,2.5962,2.5963,2.6005,0,2.6037,2.6048,2.603,2.6046,2.6049,2.6023,2.603,2.6022,2.6011,2.6011,2.5998,2.5999,2.5977,2.5974,2.5981,2.5968,2.5987,2.5964,2.5968,2.5969,2.5976,2.6031,2.6047,2.6087,2.601,2.601,2.6011,0,2.6078,2.6075,2.6092,2.608,2.608,2.6086,2.6083,2.6083,2.6074,2.6066,2.6062,2.6044,2.605,2.6027,2.6037,2.6022,2.6022,2.6016,2.6017,2.6019,2.5994,2.6037,2.6099,2.6107,2.6019,2.6018,2.6017,0,2.6122,2.6121,2.6133,2.613,2.6115,2.612,2.6114,2.6104,2.6104,2.61,2.61,2.6096,2.6095,2.6093,2.6075,2.6059,2.6088,2.6062,2.6083,2.6084,2.6092,2.6092,2.6158,2.6087,2.6087,2.6087,2.6087,0,2.6164,2.6176,2.6153,2.616,2.6173,2.6152,2.6166,2.6157,2.6149,2.6155,2.6131,2.6137,2.6111,2.6114,2.61,2.6112,2.6111,2.6105,2.6102,2.6109,2.611,2.6111,2.6109,2.6089,2.6088,2.6088,2.6088,0,2.6216,2.62,2.6211,2.6197,2.6194,2.6205,2.6193,2.6199,2.6188,2.6195,2.6195,2.6177,2.6179,2.6161,2.6159,2.615,2.617,2.616,2.6174,2.6172,2.6195,2.6195,2.6266,2.6275,2.6196,2.6197,2.6197,0,2.6245,2.6254,2.6242,2.6245,2.6241,2.6245,2.6246,2.6226,2.6227,2.622,2.6227,2.6229,2.6229,2.6234,2.6221,2.622,2.6212,2.6237,2.6212,2.622,2.6216,2.6218,2.622,2.6243,2.6244,2.6245,2.6245,0,2.6299,2.6292,2.6294,2.6295,2.6297,2.6296,2.6293,2.6296,2.6275,2.6278,2.6282,2.6282,2.6282,2.6284,2.6282,2.6275,2.6258,2.6253,2.6259,2.6268,2.6277,2.6276,2.6192,2.6252,2.6251,2.6251,2.6251,2.625,2.6342,2.6351,2.6346,2.635,2.6346,2.6345,2.6352,2.6342,2.6345,2.6345,2.6333,2.634,2.6333,2.6328,2.6323,2.6329,2.6317,2.6324,2.6326,2.6329,2.6335,2.6274,2.6328,2.6327,2.6327,2.6327,2.6327,0,2.6398,2.6394,2.6398,2.6397,2.6401,2.6385,2.6382,2.6387,2.6394,2.6389,2.6391,2.6397,2.64,2.6387,2.6389,2.6396,2.6388,2.6397,2.6398,2.6397,2.6343,2.634,2.6404,2.6404,2.6404,2.6404,2.6403,2.6403,2.6428,2.6444,2.6436,2.645,2.6445,2.6454,2.6454,2.6454,2.6451,2.6459,2.6462,2.6454,2.6447,2.6449,2.6451,2.6448,2.6451,2.6463,2.6457,2.6408,2.64,2.6393,2.6391,2.6463,2.6463,2.6511,2.6511,2.6512]}]]